Tracking 34305 objects as of 7-Jun-2026
HD Live streaming from Space Station
objects crossing your sky now

THORAD AGENA D DEB

Track THORAD AGENA D DEB now!
10-day predictions


NORAD ID: 4951
Int'l Code: 1970-025GM
Perigee: 1,024.8 km
Apogee: 1,051.8 km
Inclination: 100.2 °
Period: 105.8 minutes
Semi major axis: 7409 km
RCS: 0.071 m2 (small)
Launch date: April 8, 1970
Source: United States (US)
Launch site: AIR FORCE WESTERN TEST RANGE (AFWTR)

Note: This is SATELLITE DEBRIS
Your satellite tracking list
Your tracking list is empty




NASA's NSSDC Master Catalog

Two Line Element Set (TLE):
1 04951U 70025GM  26157.57983549  .00000175  00000-0  29332-3 0  9999
2 04951 100.1820 153.0106 0018179 147.7461 333.4676 13.61248706781393
Source of the keplerian elements: AFSPC